Погода в Горки

Погода в Горки : погода сейчас, прогноз погоды и архив. Всё, что Вы хотите узнать о погоде в Горки!

Хотите узнать прогноз погоды в Горки? Тогда Вам сюда: Погода в Горки

Поиск расширенной информации на нашем сайте:

Другие новости

Новости СМИ2

Главная страница сайта

Новости сайта

02.10.2013

Напоминаем, что на нашем новом сайте вы можете получить высокодетализированные прогнозы погоды по пунктам России, СНГ и мира (включающие важные для авиации метеовеличины, такие как направление и скорость ветра, видимость, явления погоды, количество и форма облачности, нижняя и верхняя граница облачности), а также ознакомиться с разнообразными материалами по авиационной метеорологии и подборкой полезных ссылок на эту тему.

Сайт Метеоцентр.Азия посвящён разработке технологий оптимизации авиаметеорологического обслуживания, включая проектирование и перспективное создание нескольких автоматизированных авиаметеорологических систем:
- система выпуска высокодетальных прогностических карт явлений погоды для нижнего воздушного пространства по России и ближнему зарубежью;
- система верификации прогнозов TAF (выпускаемых синоптиками официальных АМСГ РФ и ближнего зарубежья) и AUTOTAF (выпускаемых сайтом Метеоцентр.Азия) - выявление ошибок, онлайн-сопоставление с фактической погодой METAR, автоматическое внесение коррективов в прогнозы при резком отклонении фактической погоды от прогноза, подсчёт оправдываемости прогнозов по элементам и в целом;
- система обработки, анализа и отображения авиаметеорологической информации для применения провайдерами метеорологической информации.

Рекомендуем: Смотрите информацию подключение к рбт на сайте.

Погода в Горки - сегодня

Время (UTC), дата Ветер
(°,м/с) 
Видим.   Явления Облачность Т
(°С)
Тd
(°С)
f(%) Тe
(°С)
Pmin
(гПа)
dP
(гПа)
Po
(мм)
O2
(г/м3)
Тmin Tmax R s Состояние
почвы
03 24.04.17 270 (З) 17000 м    3/3 600 м 
[Sc]
-1.9 -3.4 89 -3  1011.2  0.6  739  300           
06 24.04.17 300 (СЗ) 18000 м    8/8 840 м 
[Sc]
+0.6 -1.9 83 1012.1  1.2  740  298  -3.4         
09 24.04.17 300 (СЗ) 20000 м    6/6 600 м 
[Sc]
+7.4 -5.2 40 +5  1011.6  0.1  740  291           
12 24.04.17 300 (СЗ) 5{10}  18000 м    4/4 600 м 
[Sc]
+8.3 -6.2 35 +7  1011  -0.5  740  290           
15 24.04.17 270 (З) 5{11}  20000 м    6/3 600 м верхняя 
[Sc|Ci fib]
+8.1 -5.2 38 +7  1011.2  0.2  740  290           
18 24.04.17 210 (ЮЗ) 20000 м    6/6 600 м 
[Sc]
+4.2 -5.5 49 +4  1012.5  0.9  741  295    +9.3       
21 24.04.17 340 (С) 20000 м    9/9 800 м 
[Sc]
+2.7 -1.2 75 +3  1013.3  0.6  741  296           
00 25.04.17 200 (Ю) 17000 м    ясно 
-0.7 -2.6 87 -2  1014.2  0.6  742  300           
03 25.04.17 150 (ЮВ) 14000 м    4/0 средняя 
[Ac und]
-2.1 -3 94 -3  1014.8  0.4  742  302           
06 25.04.17 180 (Ю) 14000 м    4/0 верхняя 
[Ci fib]
+4.4 +0.3 75 +3  1014.9  0.7  743  294  -2.4         
09 25.04.17 210 (ЮЗ) 7-10{11}  16000 м    6/6 600 м 
[Sc]
+9.1 -1 49 +7  1014.4  743  290           
12 25.04.17 200 (Ю) 8-11{12}  15000 м    9/9 800 м 
[Sc]
+9.9 +0.2 51 +8  1013.4  -0.9  742  288           
15 25.04.17 160 (Ю) 7-10{13}  18000 м    9/9 800 м 
[Sc]
+10.5 +0.9 51 +9  1011.7  -1.6  741  287           
18 25.04.17 140 (ЮВ) 7-10{12}  18000 м    10/4 600 м средняя 
[Sc|Ac As]
+9.1 +0.9 56 +7  1010.4  -1.4  740  288    +10.6       
21 25.04.17 170 (Ю) 7{11}  20000 м    8/0 средняя, верхняя 
[Ac und|Ci fib]
+9 +0.7 56 +7  1008.6  -1.8  738  288           
00 26.04.17 200 (Ю) 6-10{13}  9000 м  слаб. ливневой дождь  10/10 750 м кучево-дожд. 
[Cb cap]
+10 +1 54 +8  1007.8  -0.7  738  287           
03 26.04.17 180 (Ю) 6-10{12}  20000 м  {ливн. осадки}  8/6 600 м верхняя 
[Sc|Ci fib]
+8.3 +1.6 63 +6  1007.1  -0.8  737  288      0.0     
06 26.04.17 200 (Ю) 5{11}  18000 м  {ливн. осадки}  9/6 300 м кучево-дожд., средняя 
[Cb cap|Ac und]
+10.3 +3.5 63 +9  1007.4  0.5  738  286  +8    0.0     
09 26.04.17 320 (СЗ) 8-10{11}  9000 м  слаб. ливневой дождь  10/8 420 м кучево-дожд., средняя 
[Cb cap|Ac As]
+6.5 +4 84 +4  1009.1  1.3  739  290           
12 26.04.17 360 (С) 3{12}  9000 м  слаб. ливневой дождь  10/10 420 м кучево-дожд. 
[Cb cap]
+4.1 +3.1 93 +3  1012.4  741  294           
18 26.04.17 260 (З) 9000 м  слаб. ливневой дождь  10/10 420 м кучево-дожд. 
[Cb cap]
+3.8 +3 94 +3  1014  0.7  742  294    +12.4     
21 26.04.17 230 (ЮЗ) 9000 м  слаб. ливневой дождь  10/10 420 м кучево-дожд. 
[Cb cap]
+3.4 +2.7 95 +3  1015.3  1.2  743  295           
00 27.04.17 170 (Ю) 15000 м  {ливн. осадки}  10/10 420 м кучево-дожд. 
[Cb cap]
+3.1 +2.4 95 +3  1015.1  -0.2  743  295           
03 27.04.17 320 (СЗ) 6000 м  слаб. ливневой дождь  10/10 420 м кучево-дожд. 
[Cb cap]
+3.1 +2.4 95 +4  1014.8  -0.3  742  295         
06 27.04.17 030 (СВ) 9000 м  слаб. ливневой дождь  10/10 450 м кучево-дожд. 
[Cb cap]
+2.7 +1.8 94 +1  1014.5  -0.3  742  296  +2.5       
Время (UTC), дата Ветер
(°,м/с) 
Видим.   Явления Облачность Т
(°С)
Тd
(°С)
f(%) Тe
(°С)
Pmin
(гПа)
dP
(гПа)
Po
(мм)
O2
(г/м3)
Тmin Tmax R s Состояние
почвы

Для получения пояснительной информации подведите курсор к названию столбца.

ПОГОДА в Горки - архив

Всё, что Вы хотите узнать о погоде в Горки - удобно и подробно!

Выберите нужную дату (начиная с 1 января 2015* года) и нажмите кнопку "Найти".
Будут отображены архивные сводки погоды по пункту Горки, начиная с указанной даты.


Отображать данные в формате CSV (для использования в таблицах Excel)


Внимание! Наш архив погоды предназначен исключительно для личного некоммерческого использования в познавательных целях. Если Вам необходимы официальные справки о состоянии погоды (для производственных, юридических, коммерческих и т.п. целей), обращайтесь в органы Росгидромета.

*Примечание: данная дата относится к архиву по метеостанциям СССР (Россия, СНГ, Балтия).
Архив по метеостанциям Зарубежной Европы и Азии (кроме Китая) хранится 10 дней, по другим регионам земного шара (Китай, Африка, Америка, Австралия, Океания) - 1 день.

Горки - район местоположения метеостанции


Название, широта, долгота, высота метеостанции:
Горки 54.3°ш. 30.9°д. 205 м над ур. моря [Беларусь]

Дополнительная информация

В oтличие oт бoльшинства пoгoдных сайтoв мы публикуем пoдрoбную метеoинфoрмацию в детальнoм прoфессиoнальнoм фoрмате.

Характеристики температуры и влажнoсти вoздуха измеряются на высoте 2 м в тени вдали oт зданий и деревьев.
Скoрoсть ветра измеряется на высoте 10 м (на урoвне рoста челoвека скoрoсть ветра ниже в 1.5-2 раза). Если метеoстанция нахoдится в гoрoде или в лесу, тo скoрoсть ветра занижена на 2-4 м/с пo сравнению с oткрытым местoм. Скoрoсть ветра над акватoриями крупных рек и oзёр, а также на вершинах хoлмoв на 2-5 м/с выше, чем в oбычных услoвиях.
Атмoсфернoе давление в разных тoчках местнoсти мoжет значительнo oтличаться oт давления на метеoстанции, в зависимoсти oт услoвий рельефа (при пoдъёме на 10 м давление пoнижается примернo на 1 мм рт.ст.).